Location: Lac Lasalle
(46.0398°N, 74.1576°W)
Time: 00:02:47
(UTC-05:00)

AO-73 - Pass Details

Date: 12 December 2019
Orbit: 581 x 664 km, 97.6° (Epoch: 20 January)

Event Time Altitude Azimuth Distance (km) Brightness Sun altitude
Rises 05:11:21 0° 30° (NNE) 2,854 ? -22.9°
Reaches altitude 10° 05:14:28 10° 56° (NE) 1,931 ? -22.4°
Maximum altitude 05:16:47 14° 89° (E) 1,646 ? -22.0°
Drops below altitude 10° 05:19:04 10° 123° (ESE) 1,906 ? -21.6°
Sets 05:22:06 0° 148° (SSE) 2,793 ? -21.1°
